[[{"header":{"parameterUnit":"m.s-1","parameterCategory":1,"la1":30.2991,"la2":30.254,"lo1":-89.0895,"lo2":-89.0444,"dy":0.0017,"dx":0.0017,"nx":28,"ny":28,"refTime":"2025-03-30T21:00:00:Z","depth":0,"parameterNumber":2,"parameterNumberName":"U-component_of_WINDS"},"data":[0,0,0,0,0,0,0,0,0,0,0,0,0,0,0,0,0,0,0,0,0,0,0,0,0,0,0,0,0,0,0,0,0,0,0,0,0,0,0,0,0,0,0,0,0,0,0,0,0,0,0,0,0,0,0,0,0,0,0.7535,0.7535,0,0.7555,0.7556,0.7556,0.7531,0.753,0.7529,0.7528,0.7552,0.7554,0.7555,0,0,0,0,0,0,0,0,0,0,0,0,0,0.7476,0.7477,0.7534,0.7535,0.7535,0.7555,0.7556,0.7556,0.7531,0.753,0.7529,0.7528,0.7552,0.7554,0.7556,0,0,0,0,0,0,0,0,0,0,0,0,0,0.75,0.7478,0.7534,0.7525,0.7524,0.7555,0.7556,0.7556,0.7531,0.753,0.7528,0.7527,0.7551,0.7554,0.7556,0.7598,0,0,0.7563,0.7564,0,0,0,0,0,0,0,0,0.7499,0.7502,0.7526,0.7526,0.7525,0.7539,0.7544,0.757,0.7532,0.7529,0.7528,0.7526,0.7549,0.7552,0.7559,0.7599,0.76,0.7563,0.7564,0.7565,0.7566,0,0,0,0,0,0,0,0.7497,0.7501,0.7543,0.7526,0.7526,0.7521,0.7523,0.7549,0.7547,0.7529,0.7527,0.753,0.7549,0.7557,0.7559,0.7601,0.7563,0.7565,0.7566,0.7567,0.7678,0.768,0,0,0,0,0,0,0.7496,0.75,0.7542,0.7543,0.7508,0.7523,0.7525,0.7536,0.7546,0.7547,0.7531,0.7529,0.7553,0.7557,0.756,0.7611,0.7565,0.7567,0.7569,0.7677,0.7679,0.768,0,0,0,0,0,0,0.7495,0.75,0.7541,0.7521,0.7526,0.7525,0.7538,0.7537,0.7545,0.7548,0.7548,0.7539,0.7552,0.7557,0.7589,0.7611,0.7569,0.7571,0.7675,0.7677,0.7679,0.7713,0,0,0,0,0,0,0.7493,0.75,0.7515,0.7522,0.7527,0.7569,0.7539,0.7539,0.7549,0.7546,0.7556,0.7556,0.7552,0.7586,0.7591,0.7614,0.7572,0.7673,0.7676,0.7679,0.771,0.7716,0.7721,0,0,0,0,0,0.7491,0.7524,0.7516,0.7521,0.7546,0.757,0.7573,0.7567,0.755,0.7566,0.7568,0.7556,0.7608,0.7589,0.7595,0.7619,0.7671,0.7675,0.7678,0.7707,0.7715,0.7721,0,0,0,0,0,0,0.752,0.7524,0.7516,0.7551,0.756,0.7566,0.7586,0.7575,0.759,0.7587,0.7579,0.7582,0.7616,0.7621,0.76,0.7661,0.7637,0.7642,0.7657,0.7664,0.767,0.7668,0.7574,0,0,0,0,0,0.7531,0.7549,0.7552,0.7583,0.7588,0.7586,0.7597,0.7591,0.7601,0.7605,0.7609,0.762,0.7639,0.7652,0.7669,0.771,0.7713,0.773,0.7735,0.774,0.7745,0.7768,0.7776,0.7692,0.7692,0.7692,0,0,0.7553,0.7557,0.7569,0.7589,0.7596,0.7616,0.759,0.7612,0.7628,0.7608,0.7639,0.7643,0.7655,0.7692,0.7708,0.7696,0.7769,0.7745,0.7749,0.7751,0.7773,0.7781,0.7788,0.7694,0.7694,0.7694,0,0,0.7603,0.7608,0.7635,0.7642,0.7652,0.7651,0.7657,0.7664,0.7666,0.7696,0.7683,0.7702,0.7734,0.7744,0.7753,0.7808,0.7797,0.7814,0.7845,0.7867,0.7874,0.788,0.7901,0.7908,0.7818,0.7818,0.7818,0,0.7629,0.7658,0.765,0.7674,0.7683,0.7666,0.7694,0.7702,0.7718,0.7726,0.7712,0.7753,0.776,0.7799,0.7813,0.782,0.7829,0.7813,0.7874,0.7879,0.7885,0.7905,0.7912,0.782,0.782,0.782,0.782,0,0.769,0.7711,0.7732,0.7747,0.7759,0.7785,0.7782,0.7795,0.7789,0.7789,0.7821,0.7829,0.7848,0.7857,0.7851,0.7896,0.7889,0.7874,0.785,0.7895,0.7914,0.7921,0.7823,0.7823,0.7822,0.7821,0,0,0.7759,0.777,0.7778,0.7785,0.7795,0.7812,0.7838,0.7856,0.7868,0.788,0.7902,0.793,0.7918,0.7928,0.7923,0.7943,0.7988,0.7927,0.7927,0.7939,0.804,0.8051,0.8059,0.798,0.7982,0.7983,0.8039,0,0.781,0.7854,0.7848,0.789,0.791,0.7894,0.7917,0.7927,0.7928,0.7946,0.7948,0.7969,0.795,0.7956,0.7975,0.7978,0.8008,0.7974,0.8002,0.8004,0.8001,0.8069,0.808,0.8133,0.8046,0.8047,0.8048,0,0.7875,0.7889,0.7933,0.7942,0.795,0.797,0.7987,0.8004,0.8015,0.8015,0.8027,0.8019,0.8046,0.8022,0.806,0.8037,0.8048,0.8052,0.8054,0.8057,0.8029,0.8075,0.8149,0.8157,0.8059,0.8058,0.8057,0,0.7922,0.7952,0.7983,0.7989,0.8,0.8014,0.802,0.8029,0.8041,0.8056,0.8064,0.8083,0.8093,0.8108,0.8106,0.8088,0.8146,0.812,0.8147,0.8147,0.816,0.816,0.8239,0.8167,0.8166,0.8166,0.8166,0,0.798,0.8008,0.8004,0.8023,0.8054,0.8048,0.8079,0.8083,0.8092,0.8112,0.81,0.812,0.8115,0.8135,0.8134,0.8166,0.8171,0.8173,0.8172,0.8174,0.8174,0.8182,0.8178,0.8168,0.8168,0.8168,0.8167,0,0.8038,0.8036,0.8068,0.8076,0.8078,0.8101,0.8108,0.8127,0.8128,0.8154,0.8159,0.8161,0.8184,0.8183,0.8209,0.8208,0.8249,0.8244,0.8245,0.8244,0.8272,0.8269,0.8359,0.8371,0.829,0.8291,0.8292,0,0.8075,0.8096,0.8106,0.8118,0.8125,0.8145,0.8157,0.8152,0.8165,0.818,0.8197,0.8219,0.8236,0.8274,0.8278,0.8298,0.8294,0.8324,0.8297,0.8299,0.8296,0.8295,0.8297,0.8329,0.833,0.8331,0.8332,0,0.8142,0.814,0.8157,0.8175,0.8189,0.8203,0.8216,0.8227,0.8223,0.8239,0.8262,0.8275,0.8302,0.8324,0.8344,0.8351,0.8341,0.834,0.8348,0.835,0.835,0.8352,0.826,0.8338,0.8337,0.8337,0.8337,0.8336,0.8191,0.8209,0.8219,0.824,0.8249,0.8261,0.8279,0.8282,0.8301,0.8322,0.8318,0.8344,0.8356,0.8382,0.839,0.8412,0.8401,0.8412,0.8415,0.8418,0.8421,0.8346,0.8415,0.8415,0.8415,0.8415,0.8415,0,0.8258,0.8264,0.8282,0.83,0.8317,0.8305,0.8319,0.8334,0.8357,0.8369,0.8386,0.8413,0.8435,0.8441,0.8462,0.8478,0.8475,0.8484,0.8484,0.8486,0.8429,0.8421,0.8487,0.8487,0.8487,0.8487,0.8487,0.8487,0.8294,0.8325,0.8325,0.8362,0.8368,0.8393,0.8402,0.8413,0.8423,0.8454,0.8472,0.8475,0.8485,0.8508,0.8528,0.8529,0.8538,0.855,0.855,0.8497,0.8489,0.8482,0.8475,0.8551,0.8552,0.8604,0.8605,0.8605]},{"header":{"parameterUnit":"m.s-1","parameterCategory":1,"la1":30.2991,"la2":30.254,"lo1":-89.0895,"lo2":-89.0444,"dy":0.0017,"dx":0.0017,"nx":28,"ny":28,"refTime":"2025-03-30T21:00:00:Z","depth":0,"parameterNumber":3,"parameterNumberName":"V-component_of_WINDS"},"data":[0,0,0,0,0,0,0,0,0,0,0,0,0,0,0,0,0,0,0,0,0,0,0,0,0,0,0,0,0,0,0,0,0,0,0,0,0,0,0,0,0,0,0,0,0,0,0,0,0,0,0,0,0,0,0,0,0,0,4.1096,4.1098,0,4.1253,4.1255,4.1256,4.1276,4.1274,4.1273,4.1271,4.1433,4.1439,4.1444,0,0,0,0,0,0,0,0,0,0,0,0,0,4.0816,4.0821,4.1096,4.1098,4.11,4.1253,4.1255,4.1257,4.1276,4.1274,4.1273,4.1271,4.1431,4.1438,4.1445,0,0,0,0,0,0,0,0,0,0,0,0,0,4.0952,4.0823,4.1096,4.1128,4.1133,4.1252,4.1255,4.1257,4.1277,4.1274,4.1272,4.127,4.1429,4.1437,4.1446,4.1545,0,0,4.1472,4.1476,0,0,0,0,0,0,0,0,4.0944,4.0962,4.1121,4.1126,4.1131,4.1242,4.1215,4.1354,4.1277,4.1222,4.1271,4.1269,4.1372,4.1385,4.1419,4.1552,4.1559,4.1473,4.1478,4.1482,4.1484,0,0,0,0,0,0,0,4.0935,4.0956,4.1158,4.1124,4.113,4.1136,4.1152,4.1242,4.1308,4.1227,4.1228,4.1247,4.1374,4.1411,4.1423,4.1562,4.1473,4.148,4.1486,4.1489,4.1787,4.1789,0,0,0,0,0,0,4.0919,4.0948,4.1153,4.1163,4.103,4.1142,4.1161,4.1209,4.1307,4.132,4.1248,4.1247,4.1397,4.1413,4.1429,4.1554,4.1482,4.149,4.1495,4.1784,4.1787,4.179,0,0,0,0,0,0,4.0913,4.0937,4.1147,4.1056,4.1083,4.115,4.1203,4.1213,4.125,4.1323,4.1335,4.1274,4.1396,4.1417,4.1516,4.1559,4.1494,4.1502,4.1781,4.1785,4.1789,4.1802,0,0,0,0,0,0,4.0905,4.0935,4.0972,4.1057,4.1088,4.1231,4.1206,4.1218,4.1265,4.1265,4.135,4.1363,4.1396,4.1504,4.1525,4.157,4.1508,4.1777,4.1783,4.1788,4.1798,4.1806,4.1813,0,0,0,0,0,4.0895,4.0969,4.0974,4.0999,4.1136,4.1233,4.1251,4.1288,4.1268,4.1307,4.1355,4.136,4.1551,4.1513,4.1538,4.1586,4.1775,4.1781,4.1787,4.1794,4.1804,4.1812,0,0,0,0,0,0,4.0889,4.0981,4.0987,4.1091,4.1154,4.1236,4.1286,4.1297,4.1367,4.1363,4.1406,4.1426,4.1524,4.1565,4.1522,4.1688,4.1661,4.1672,4.1658,4.1668,4.1675,4.1664,4.1515,0,0,0,0,0,4.0899,4.097,4.1047,4.1131,4.1163,4.1219,4.1263,4.1286,4.1353,4.138,4.1434,4.15,4.1575,4.1623,4.1696,4.1803,4.1824,4.1849,4.1856,4.1862,4.1872,4.1934,4.1947,4.1811,4.1811,4.1811,0,0,4.0922,4.0981,4.1023,4.1132,4.1183,4.1257,4.1241,4.1319,4.1375,4.1392,4.149,4.1532,4.1608,4.1712,4.1761,4.175,4.1914,4.187,4.1874,4.1881,4.1942,4.1955,4.1966,4.1815,4.1814,4.1813,0,0,4.1002,4.1052,4.113,4.1182,4.126,4.1298,4.1316,4.1398,4.1426,4.1525,4.154,4.1607,4.1735,4.179,4.1834,4.1936,4.1945,4.1959,4.1998,4.2059,4.2069,4.2079,4.2118,4.2132,4.1968,4.1968,4.1968,0,4.102,4.1131,4.1168,4.1246,4.1295,4.1313,4.1393,4.1442,4.154,4.1574,4.1559,4.1722,4.1774,4.1893,4.1918,4.1952,4.1977,4.195,4.2065,4.2075,4.2085,4.2123,4.2137,4.1969,4.1969,4.1969,4.1969,0,4.1152,4.1228,4.1281,4.1376,4.143,4.1509,4.1559,4.1609,4.1628,4.1667,4.1769,4.1832,4.192,4.1949,4.1968,4.2072,4.2063,4.2056,4.203,4.2098,4.2135,4.2149,4.1971,4.1971,4.197,4.197,0,0,4.1232,4.1347,4.1366,4.1411,4.1499,4.156,4.164,4.1726,4.1769,4.1836,4.1906,4.2015,4.201,4.206,4.2085,4.2138,4.2219,4.2125,4.2128,4.2143,4.234,4.2347,4.2363,4.2224,4.2227,4.2229,4.2335,0,4.1323,4.1466,4.1503,4.1625,4.1698,4.1718,4.1788,4.185,4.189,4.1958,4.2001,4.2079,4.2065,4.2096,4.2149,4.2197,4.2259,4.219,4.2291,4.2295,4.2274,4.2381,4.2388,4.2484,4.2349,4.2351,4.2353,0,4.1449,4.152,4.165,4.1732,4.1764,4.1826,4.1909,4.1973,4.2045,4.207,4.2128,4.2148,4.2234,4.2202,4.2323,4.2275,4.2318,4.2349,4.2353,4.2366,4.2329,4.2399,4.2516,4.2531,4.2375,4.2374,4.2372,0,4.1498,4.1626,4.1721,4.1758,4.1855,4.1899,4.1941,4.2011,4.2061,4.2133,4.2167,4.2248,4.2293,4.2356,4.2399,4.2371,4.2517,4.2487,4.2542,4.2541,4.2573,4.2571,4.2701,4.2597,4.2597,4.2596,4.2596,0,4.1598,4.1677,4.1744,4.1803,4.1893,4.1934,4.2023,4.2066,4.2128,4.2197,4.2218,4.2282,4.2334,4.2405,4.2439,4.2535,4.2554,4.2579,4.2587,4.2578,4.2576,4.2609,4.2604,4.26,4.2599,4.2599,4.2598,0,4.1668,4.1716,4.1821,4.1905,4.1927,4.199,4.2063,4.2121,4.2161,4.2248,4.227,4.2334,4.2419,4.2468,4.2575,4.2598,4.2706,4.271,4.2682,4.2686,4.2738,4.2734,4.2896,4.2921,4.2798,4.2799,4.28,0,4.173,4.1791,4.1882,4.1929,4.1973,4.2048,4.21,4.2143,4.2196,4.2285,4.2333,4.242,4.2492,4.2628,4.2684,4.2767,4.2775,4.2826,4.2788,4.2778,4.2779,4.2776,4.2784,4.2833,4.2834,4.2835,4.2836,0,4.1835,4.1856,4.1929,4.2012,4.2072,4.2139,4.2205,4.2243,4.2298,4.2357,4.2445,4.25,4.2611,4.2698,4.2785,4.283,4.2844,4.2847,4.2865,4.2858,4.284,4.2853,4.2702,4.2844,4.2843,4.2843,4.2842,4.2842,4.1905,4.1962,4.2035,4.2116,4.2171,4.2233,4.2293,4.2341,4.2415,4.2508,4.2529,4.2623,4.2696,4.2815,4.2863,4.2937,4.2928,4.2953,4.2959,4.2965,4.2969,4.2826,4.2953,4.2953,4.2953,4.2953,4.2952,0,4.2014,4.2062,4.2136,4.2229,4.2294,4.2299,4.2374,4.2428,4.251,4.2576,4.2647,4.275,4.2834,4.2898,4.2985,4.3033,4.3041,4.3054,4.3053,4.3064,4.297,4.2948,4.3046,4.3046,4.3046,4.3046,4.3046,4.3046,4.2078,4.2176,4.2206,4.2331,4.2379,4.2471,4.2513,4.2571,4.2625,4.2738,4.2809,4.2849,4.2916,4.3009,4.3087,4.3104,4.3136,4.3149,4.3167,4.308,4.307,4.306,4.3039,4.3155,4.3155,4.3254,4.3255,4.3256]}]]